#timestamp,LO_Frequency,Hit 
1499259615.9,286046932.5,N
1499259635.7,286046935.6,N
1499259655.5,286046933.5,N
1499259675.4,286046933.6,N
1499259695.2,286046933.4,N
1499259715.0,286046933.6,N
1499259715.9,286046933.6,N
1499259735.8,286046931.2,N
1499259755.6,286046931.5,N
1499259775.4,286046931.8,N
1499259795.3,286046930.6,N
1499259815.1,286046930.6,N
1499259816.0,286046930.6,N
1499259835.8,286046930.8,N
1499259855.7,286046930.8,N
1499259875.5,286046930.7,N
1499259895.3,286046928.1,N
1499259915.2,286046928.1,N
1499259935.9,286046927.9,N
1499259955.7,286046927.8,N
1499259975.6,286046930.4,N
1499259995.4,286046930.0,N
1499260015.2,286046927.8,N
1499260035.0,286046930.5,N
1499260036.0,286046930.5,N
1499260055.8,286046928.1,N
1499260075.6,286046926.8,N
1499260095.4,286046926.2,N
1499260115.3,286046924.5,N
1499260135.1,286046925.8,N
1499260155.8,286046923.1,Y
1499260175.7,286046979.6,N
1499260195.5,286046979.2,N
1499260215.3,286046979.5,N
1499260235.2,286046979.4,N
1499260255.9,286046979.0,N
1499260275.7,286046981.0,N
1499260295.6,286046980.9,N
1499260315.4,286046978.9,N
1499260335.2,286046979.7,N
1499260355.1,286046977.3,N
1499260356.0,286046977.3,N
1499260375.8,286046978.6,N
1499260395.6,286046976.1,N
1499260415.5,286046975.9,N
1499260435.3,286046978.4,N
1499260455.1,286046978.4,N
1499260475.8,286046977.4,N
1499260495.7,286046978.8,N
1499260515.5,286046976.1,N
1499260535.3,286046977.1,N
1499260555.2,286046975.8,N
1499260575.9,286046978.6,N
1499260595.7,286046978.4,N
1499260615.6,286046976.6,N
1499260635.4,286046974.9,N
1499260655.2,286046977.2,N
1499260675.1,286046975.4,N
1499260676.0,286046975.4,N
1499260695.8,286046975.4,N
1499260715.6,286046975.4,N
1499260735.4,286046973.4,N
1499260755.3,286046972.5,N
1499260775.1,286046972.7,N
1499260795.8,286046973.5,N
1499260815.7,286046971.5,N
1499260835.5,286046973.1,N
1499260855.3,286046973.4,N
1499260875.2,286046973.4,N
1499260895.9,286046971.5,N
1499260915.7,286046969.3,N
1499260935.6,286046972.0,N
1499260955.4,286046970.2,N
1499260975.2,286046969.8,N
1499260995.1,286046970.5,N
1499260996.0,286046970.5,N
1499261015.8,286046968.0,N
1499261035.6,286046968.3,N
1499261055.4,286046966.5,N
1499261075.3,286046966.5,N
1499261095.1,286046966.5,N
1499261115.8,286046966.9,N
1499261135.7,286046967.1,N
1499261155.5,286046967.3,N
1499261175.3,286046967.5,N
1499261195.2,286046965.8,N
1499261215.9,286046965.1,N
1499261235.7,286046965.2,N
1499261255.6,286046965.3,N
1499261275.4,286046965.4,N
1499261295.2,286046965.1,N
1499261315.1,286046965.3,N
1499261316.0,286046965.3,N
1499261335.8,286046965.9,N
1499261355.6,286046963.2,N
1499261375.5,286046964.2,N
1499261395.3,286046961.8,N
1499261415.1,286046963.7,N
1499261435.8,286046962.9,N
1499261455.7,286046965.2,N
1499261475.5,286046963.3,N
1499261495.3,286046963.5,N
1499261515.2,286046962.9,N
1499261535.0,286046966.0,N
1499261535.9,286046966.0,N
1499261555.7,286046965.7,N
1499261575.6,286046965.7,N
1499261595.4,286046965.2,N
1499261615.2,286046965.5,N
1499261635.1,286046965.4,N
1499261636.0,286046965.4,N
1499261655.8,286046965.2,N
1499261675.6,286046965.4,N
1499261695.5,286046964.9,N
1499261715.3,286046965.7,N
1499261735.1,286046964.9,N
1499261755.9,286046965.4,N
1499261775.7,286046964.7,N
1499261795.5,286046965.1,N
1499261815.4,286046965.7,N
1499261835.2,286046963.3,N
1499261855.0,286046964.2,N
1499261855.9,286046964.2,N
1499261875.8,286046963.8,N
1499261895.6,286046963.3,N
1499261915.4,286046963.4,N
1499261935.2,286046963.9,N
1499261955.1,286046963.9,N
1499261956.0,286046963.9,N
1499261975.8,286046961.9,N
1499261995.6,286046960.0,N
1499262015.5,286046960.7,N
1499262035.3,286046961.2,N
1499262055.1,286046958.6,N
1499262075.9,286046960.7,N
1499262095.7,286046961.2,N
1499262115.5,286046958.6,N
1499262135.4,286046958.5,N
1499262155.2,286046958.7,N
1499262175.0,286046958.2,N
1499262175.9,286046958.2,N
1499262195.8,286046959.1,N
1499262215.6,286046958.8,N
1499262235.4,286046958.4,N
1499262255.3,286046956.7,N
1499262275.1,286046956.6,N
1499262276.0,286046956.6,N
1499262295.8,286046958.0,N
1499262315.7,286046955.0,N
1499262335.5,286046955.7,N
1499262355.3,286046955.9,N
1499262375.2,286046955.9,N
1499262395.9,286046953.4,N
1499262415.7,286046952.0,N
1499262435.5,286046953.5,N
1499262455.4,286046952.5,N
1499262475.2,286046951.9,N
1499262495.0,286046953.5,N
1499262495.9,286046953.5,N
1499262515.8,286046953.5,N
1499262535.6,286046955.7,N
1499262555.4,286046954.2,N
1499262575.3,286046953.8,N
1499262595.1,286046953.4,N
1499262596.0,286046953.4,N
1499262615.8,286046953.9,N
1499262635.7,286046955.6,N
1499262655.5,286046953.6,N
1499262675.3,286046956.4,N
1499262695.2,286046953.6,N
1499262715.9,286046954.2,N
1499262735.7,286046954.3,N
1499262755.6,286046954.3,N
1499262775.4,286046954.1,N
1499262795.2,286046953.0,N
1499262815.0,286046954.8,N
1499262816.0,286046954.8,N
1499262835.8,286046951.7,N
1499262855.6,286046954.7,N
1499262875.4,286046950.7,N
1499262895.3,286046952.6,N
1499262915.1,286046952.6,N
1499262935.8,286046952.0,N
1499262955.7,286046953.0,N
1499262975.5,286046954.8,N
1499262995.3,286046954.8,N
1499263015.2,286046950.3,N
1499263035.9,286046952.4,N
1499263055.7,286046952.0,N
1499263075.6,286046954.8,N
1499263095.4,286046952.4,N
1499263115.2,286046952.8,N
1499263135.1,286046950.1,N
1499263136.0,286046950.1,N
1499263155.8,286046952.1,N
1499263175.6,286046952.3,N
1499263195.4,286046952.4,N
